Flag for Iran Weather past 2 weeks in Bandar-Abbas, Iran

Now
86 °F

Haze.


Feels Like: 92 °F
Forecast: 78 / 103 °F
Wind: 5 mph from Northeast

Location: Bandarabbass

Current Time: May 29, 2015 at 11:41:09 PM

Latest Report: May 29, 2015 at 11:30 PM


Visibility: 3 mi

Pressure: 29.68 "Hg

Humidity: 62%

Dew point: 72 °F

Location of Bandar-AbbasLocation

Historic Weather in Bandar-Abbas — Graph

°F

Bandar-Abbas temperature yesterday

Maximum temperature yesterday: 100 °F (at 4:00 PM)
Minimum temperature yesterday: 82 °F (at 1:30 AM)
Average temperature yesterday: 90 °F

Past Weeks' High & Low Weather Summary

 TemperatureHumidityPressure
High106 °F (May 19, 3:30 PM)94% (May 21, 12:30 AM)29.80 "Hg (May 21, 12:30 AM)
Low75 °F (May 19, 4:30 AM)9% (May 22, 3:00 PM)29.47 "Hg (May 17, 5:00 PM)
Average90 °F61%29.62 "Hg
* Reported May 14 10:30 PM — May 29 10:30 PM, Bandar-Abbas, Weather by CustomWeather, © 2015

Note: Actual official high and low records may vary slightly from our data, if they occured in-between our weather recording intervals... More about our weather records

Advertising

Bandar-Abbas weather history for previous 24 hours

 ConditionsComfort  
Time TempWeatherWind HumidityBarometerVisibility
10:30 PM
Fri, May 29
90 °FHaze.7 mph63%29.65 "Hg3 mi
10:00 PM93 °FClear.9 mph41%29.62 "Hg4 mi
9:30 PM93 °FClear.9 mph41%29.62 "Hg4 mi
9:00 PM91 °FClear.9 mph56%29.62 "Hg4 mi
8:30 PM91 °FClear.9 mph63%29.62 "Hg4 mi
8:00 PM93 °FClear.9 mph59%29.59 "Hg4 mi
7:30 PM97 °FClear.9 mph39%29.59 "Hg4 mi
7:00 PM99 °FClear.9 mph39%29.56 "Hg4 mi
6:30 PM99 °FClear.12 mph42%29.56 "Hg4 mi
6:00 PM100 °FClear.9 mph40%29.56 "Hg4 mi
5:20 PM104 °FClear.14 mph29%29.56 "Hg4 mi
5:00 PM104 °FClear.14 mph29%29.56 "Hg4 mi
4:30 PM100 °FClear.16 mph40%29.56 "Hg4 mi
4:00 PM99 °FHaze.9 mph42%29.59 "Hg3 mi
3:30 PM99 °FHaze.16 mph42%29.59 "Hg3 mi
3:00 PM99 °FHaze.12 mph44%29.59 "Hg3 mi
2:30 PM97 °FHaze.9 mph53%29.62 "Hg2 mi
2:00 PM97 °FHaze.14 mph50%29.62 "Hg2 mi
1:30 PM97 °FHaze.12 mph50%29.62 "Hg2 mi
1:00 PM97 °FHaze.14 mph53%29.62 "Hg2 mi
12:30 PM97 °FHaze.9 mph53%29.65 "Hg2 mi
12:00 PM97 °FHaze.9 mph53%29.65 "Hg2 mi
11:30 AM95 °FHaze.7 mph56%29.65 "Hg2 mi
11:00 AM95 °FHaze.7 mph53%29.65 "Hg2 mi
10:30 AM95 °FHaze.5 mph50%29.65 "Hg2 mi
10:00 AM95 °FHaze.5 mph50%29.65 "Hg2 mi
9:30 AM91 °FHaze.5 mph59%29.65 "Hg2 mi
9:00 AM91 °FHot.No wind59%29.65 "Hg2 mi
8:30 AM88 °FHaze.No wind70%29.65 "Hg2 mi
8:00 AM86 °FHaze.5 mph75%29.62 "Hg2 mi
7:30 AM82 °FFog.5 mph79%29.62 "Hg2 mi
7:00 AM81 °FFog.5 mph84%29.59 "Hg2 mi
6:30 AM79 °FFog.5 mph84%29.59 "Hg2 mi
5:30 AM79 °FFog.5 mph84%29.59 "Hg2 mi
4:30 AM81 °FFog.5 mph84%29.59 "Hg2 mi
3:30 AM81 °FFog.5 mph84%29.59 "Hg2 mi
2:30 AM82 °FFog.5 mph79%29.59 "Hg2 mi
2:00 AM82 °FFog.7 mph79%29.59 "Hg2 mi
1:30 AM82 °FHaze.No wind79%29.59 "Hg3 mi
1:00 AM84 °FHaze.5 mph74%29.59 "Hg3 mi
12:30 AM84 °FHaze.7 mph74%29.59 "Hg3 mi
12:00 AM84 °FHaze.5 mph70%29.59 "Hg3 mi
11:30 PM
Thu, May 28
86 °FHaze.7 mph75%29.56 "Hg3 mi
11:00 PM86 °FHaze.7 mph75%29.56 "Hg3 mi
Weather by CustomWeather, © 2015

See weather overviewHow to use our weather pages